Find Starlink 38317

NORAD ID: 100458 Int'l Des: 2026-193 Owner: SPXS Country: US Constellation: starlink operational

当前视图

正在加载3D地球...

About Starlink 38317

Starlink 38317 (NORAD 100458) is a starlink constellation satellite launched Aug 22, 2026 by SPXS of US. with a mass of 575.00 kg.

即将过境

Passes for default location (London). Set your location on the main map for personalized predictions.

高度历史

Loading altitude history...

两行轨道根数

1 A0458U 26193AB 26255.94167941 -.00301854 00000-0 -46807-2 0 9999
2 A0458 69.9990 95.3543 0003341 293.6115 66.4722 15.54836756 4515
Epoch: Sep 12, 2026 • Age: 6 hours

当前状态

高度 410.3 km
远地点 / 近地点 N/A
速度 7.67 km/s
星下点 45.14°N, 48.96°E
发射日期 Aug 22, 2026
运行时间 21 days
类型 internet

技术详情

分类 Payload
质量 575.00 kg
干质量 530.00 kg
总质量 575.00 kg
长度 0.30 m
直径 4.10 m
跨度 29.00 m
形状 Box + pan
制造商 SPXS
平台类型 Starlink V2MO
阶段状态 In Orbit
所有者/国家 SPXS/US

Most Searched